Key West, FL

11:18 PM EDT on June 27, 2017 (GMT -0400)
Key West International

Weather History for KEYW - May, 2014

Change the Weather History Date:

Saturday, May 31, 2014

  Actual Average Record
Temperature  
Mean Temperature 85 °F 82 °F  
Max Temperature 88 °F 87 °F 93 °F (1881)
Min Temperature 81 °F 78 °F 70 °F (1934)
Degree Days  
Heating Degree Days 0 0  
Month to date heating degree days 0 0  
Since 1 July heating degree days 22 73  
Cooling Degree Days 20 17  
Month to date cooling degree days 528 476  
Year to date cooling degree days 1622 1430  
Growing Degree Days 34 (Base 50)    
Moisture  
Dew Point 74 °F    
Average Humidity 69    
Maximum Humidity 74    
Minimum Humidity 63    
Precipitation  
Precipitation 0.00 in 0.14 in 2.81 in (1871)
Month to date precipitation 0.91 3.00  
Year to date precipitation 12.85 10.63  
Snow  
Snow 0.00 in - - ()
Month to date snowfall 0.0  
Since 1 July snowfall 0.0  
Snow Depth 0.00 in    
Sea Level Pressure  
Sea Level Pressure 29.98 in    
Wind  
Wind Speed 11 mph (ESE)    
Max Wind Speed 17 mph    
Max Gust Speed 21 mph    
Visibility 10 miles    
Events      
T = Trace of Precipitation, MM = Missing Value Source: NWS Daily Summary

Daily Weather History Graph

Daily Weather History Graph

Search for Another Location

Airport or City:

Trip Planner

Search our weather history database for the weather conditions in past years. The results will help you decide how hot, cold, wet, or windy it might be!

Date:

Astronomy

May. 31, 2014 Rise Set
Actual Time 6:38 AM EDT 8:11 PM EDT
Civil Twilight 6:12 AM EDT 8:36 PM EDT
Nautical Twilight 5:42 AM EDT 9:07 PM EDT
Astronomical Twilight 5:11 AM EDT 9:38 PM EDT
Moon 9:06 AM EDT (5/31) 10:38 PM EDT (5/31)
Length of Visible Light 14h 23m
Length of Day
13h 33m
Waxing Crescent, 8% of the Moon is Illuminated
May 31
Waxing Crescent
Jun 5
First Quarter
Jun 13
Full
Jun 19
Last Quarter
Jun 27
New

Hourly Weather History & Observations

Time (EDT) Temp. Heat Index Dew Point Humidity Pressure Visibility Wind Dir Wind Speed Gust Speed Precip Events Conditions
12:53 AM 82.0 °F 87.4 °F 73.0 °F 74% 30.00 in 10.0 mi ESE 13.8 mph - N/A   Partly Cloudy
1:53 AM 82.0 °F 87.4 °F 73.0 °F 74% 29.99 in 10.0 mi ESE 12.7 mph - N/A   Partly Cloudy
2:26 AM 82.0 °F 87.9 °F 73.9 °F 76% 29.98 in 10.0 mi East 11.5 mph - N/A   Mostly Cloudy
2:34 AM 81.0 °F 85.8 °F 73.0 °F 77% 29.98 in 10.0 mi East 11.5 mph - N/A   Scattered Clouds
2:53 AM 82.0 °F 87.9 °F 73.9 °F 76% 29.98 in 10.0 mi ESE 11.5 mph - N/A   Partly Cloudy
3:53 AM 82.0 °F 87.9 °F 73.9 °F 76% 29.96 in 10.0 mi SE 10.4 mph - N/A   Partly Cloudy
4:29 AM 82.0 °F 87.9 °F 73.9 °F 76% 29.96 in 10.0 mi SSE 12.7 mph - N/A   Mostly Cloudy
4:45 AM 82.0 °F 87.4 °F 73.0 °F 74% 29.96 in 10.0 mi SE 12.7 mph - N/A   Mostly Cloudy
4:53 AM 82.0 °F 87.4 °F 73.0 °F 74% 29.97 in 10.0 mi SE 13.8 mph - N/A   Scattered Clouds
5:53 AM 82.0 °F 87.4 °F 73.0 °F 74% 29.97 in 10.0 mi SE 11.5 mph - N/A   Clear
6:53 AM 82.0 °F 87.4 °F 73.0 °F 74% 29.99 in 10.0 mi SE 8.1 mph - N/A   Clear
7:53 AM 82.0 °F 87.9 °F 73.9 °F 76% 29.99 in 10.0 mi SE 9.2 mph - N/A   Partly Cloudy
8:53 AM 84.0 °F 91.2 °F 73.9 °F 72% 30.00 in 10.0 mi SE 10.4 mph - N/A   Partly Cloudy
9:53 AM 84.0 °F 91.2 °F 73.9 °F 72% 30.01 in 10.0 mi SE 8.1 mph - N/A   Partly Cloudy
10:53 AM 84.2 °F 90.9 °F 73.4 °F 70% 30.00 in 10.0 mi SE 9.2 mph - N/A   Clear
11:53 AM 86.0 °F 93.8 °F 73.9 °F 67% 30.01 in 10.0 mi ESE 9.2 mph - N/A   Partly Cloudy
12:53 PM 87.1 °F 95.4 °F 73.9 °F 65% 30.01 in 10.0 mi ESE 10.4 mph - N/A   Partly Cloudy
1:53 PM 87.1 °F 96.3 °F 75.0 °F 67% 29.99 in 10.0 mi ESE 10.4 mph - N/A   Clear
2:53 PM 88.0 °F 96.5 °F 73.9 °F 63% 29.98 in 10.0 mi ESE 9.2 mph - N/A   Clear
3:53 PM 86.0 °F 93.8 °F 73.9 °F 67% 29.96 in 10.0 mi SE 9.2 mph - N/A   Clear
4:53 PM 84.9 °F 93.3 °F 75.0 °F 72% 29.95 in 10.0 mi ESE 10.4 mph - N/A   Partly Cloudy
5:53 PM 86.0 °F 93.8 °F 73.9 °F 67% 29.94 in 10.0 mi East 10.4 mph - N/A   Clear
6:53 PM 84.0 °F 90.2 °F 73.0 °F 69% 29.95 in 10.0 mi East 15.0 mph - N/A   Clear
7:53 PM 82.9 °F 88.8 °F 73.0 °F 72% 29.95 in 10.0 mi East 13.8 mph - N/A   Clear
8:53 PM 82.9 °F 88.8 °F 73.0 °F 72% 29.96 in 10.0 mi East 12.7 mph - N/A   Clear
9:53 PM 82.9 °F 88.8 °F 73.0 °F 72% 29.99 in 10.0 mi East 13.8 mph - N/A   Partly Cloudy
10:53 PM 82.9 °F 88.8 °F 73.0 °F 72% 30.00 in 10.0 mi East 13.8 mph - N/A   Clear
11:53 PM 82.9 °F 88.8 °F 73.0 °F 72% 29.99 in 10.0 mi East 13.8 mph - N/A   Clear